Flag Weather past 2 weeks in Buenos Aires, Argentina

Now
73 °F

Sunny.


Feels Like: 77 °F
Forecast: 69 / 83 °F
Wind: 9 mph from North

Location: Buenos Aires Airport

Current Time: Nov 28, 2014 at 9:57:27 AM

Latest Report: Nov 28, 2014 at 9:00 AM


Visibility: 10 mi

Pressure: 30.07 "Hg

Humidity: 50%

Dew point: 54 °F

Location of Buenos AiresLocation

Historic Weather in Buenos Aires — Graph

°F

Buenos Aires temperature yesterday

Maximum temperature yesterday: 77 °F (at 3:00 PM)
Minimum temperature yesterday: 64 °F (at 3:00 AM)
Average temperature yesterday: 71 °F

Past Weeks' High & Low Weather Summary

 TemperatureHumidityPressure
High88 °F (Nov 18, 4:00 PM)94% (Nov 19, 9:00 AM)30.15 "Hg (Nov 19, 9:00 AM)
Low57 °F (Nov 13, 8:00 AM)31% (Nov 22, 3:00 PM)29.65 "Hg (Nov 18, 6:00 PM)
Average71 °F61%29.93 "Hg
* Reported Nov 13 8:00 AM — Nov 28 8:00 AM, Buenos Aires, Weather by CustomWeather, © 2014

Note: Actual official high and low records may vary slightly from our data, if they occured in-between our weather recording intervals... More about our weather records

Advertising

Buenos Aires weather history for previous 24 hours

 ConditionsComfort  
Time TempWeatherWind HumidityBarometerVisibility
8:00 AM
Nov 28
72 °FSunny.8 mph57%30.07 "Hg10 mi
7:00 AM72 °FSunny.14 mph53%30.04 "Hg10 mi
6:00 AM72 °FSunny.14 mph57%29.98 "Hg10 mi
11:00 PM
Nov 27
73 °FClear.8 mph61%29.98 "Hg10 mi
10:00 PM73 °FClear.8 mph61%29.98 "Hg10 mi
9:00 PM73 °FClear.6 mph61%29.98 "Hg10 mi
8:00 PM73 °FClear.7 mph61%29.95 "Hg10 mi
7:00 PM75 °FClear.6 mph54%29.95 "Hg10 mi
6:00 PM75 °FSunny.6 mph54%29.95 "Hg10 mi
5:00 PM77 °FSunny.6 mph54%29.95 "Hg10 mi
4:00 PM77 °FPassing clouds.6 mph44%29.98 "HgN/A
3:00 PM77 °FSunny.5 mph44%29.98 "Hg10 mi
2:00 PM75 °FSunny.6 mph54%30.01 "Hg10 mi
1:00 PM73 °FSunny.6 mph61%30.01 "Hg10 mi
12:00 PM73 °FSunny.8 mph57%30.04 "Hg10 mi
11:00 AM72 °FPassing clouds.5 mph69%30.04 "HgN/A
10:00 AM72 °FSunny.5 mph65%30.04 "Hg10 mi
9:00 AM72 °FPassing clouds.5 mph65%30.04 "HgN/A
Weather by CustomWeather, © 2014

See weather overviewHow to use our weather pages